星链-33581 (STARLINK-33581)

导读

STARLINK-33581是美国(US)于2025年1月21日发射的星链卫星,隶属于SpaceX公司的星链项目。星链项目旨在构建全球卫星互联网星座,为全球偏远地区、海洋等网络覆盖薄弱区域提供高速互联网接入服务,该卫星入轨后将进一步扩充星链星座的服务能力,提升全球网络覆盖的广度与稳定性。

Basic Information
目录编号:
62784
目录名称:
STARLINK-33581
国际标识:
2025-015AC
轨道中心:
EARTH
卫星名称:
星链-33581
卫星全名:
星链-33581 (STARLINK-33581)
卫星状态:
在轨 (已飞行509 天)
发射日期:
2025-01-21 UTC
国别 :
美国 (US)
星等 :
--
Orbit Information
数据来源 国际轨道数据 AOE轨道数据
星历时间 2026-06-14T05:17:22+0800
12小时前
查看轨道信息
2026-06-12T05:00:00+0800
2天前
查看轨道信息
半长轴 6848.842km 6848.922km
偏心率 0.0001335 0.0001318
轨道倾角 53.158° 53.158°
近地点辐角 60.845° 74.111°
升交点赤经 235.326° 244.696°
平近点角 299.268° 345.034°
近地点 469.79km 469.882km
远地点 471.62km 471.688km
周期 94.012分钟 94.014分钟
每日圈数 15.317118 15.316852
Detailed Information
固有亮度:
5
最大亮度:
2.5
卫星平台:
Starlink V1.0
覆盖范围:
全球
运营商:
太空探索技术公司
运营商所在国:
美国
制造商(研发单位):
太空探索技术公司
制造商所在国:
美国
使用方式:
暂无
Satellite Introduction
Starlink 计划是 SpaceX 推出的全球卫星互联网项目,通过发射低轨道卫星,为全球尤其是偏远地区提供高速、低延迟的互联网服务。自 2019 年起,Starlink 已部署数千颗卫星,旨在缩小全球数字鸿沟,推动互联网普及。该项目还为军事、航空等行业提供通信支持,带来广泛经济效益。
2D Orbit Map
3D Orbit Map
Orbit Altitude Analysis Chart
Orbit Inclination Analysis Chart
Orbit Comprehensive Analysis Chart
View Comprehensive Chart